TimeEDT,TemperatureF,Dew PointF,Humidity,Sea Level PressureIn,VisibilityMPH,Wind Direction,Wind SpeedMPH,Gust SpeedMPH,PrecipitationIn,Events,Conditions,WindDirDegrees,DateUTC
12:15 AM,38.7,35.1,87,30.29,10.0,Calm,Calm,-,N/A,,Clear,0,2013-03-10 05:15:00
12:35 AM,38.3,35.1,88,30.29,10.0,Calm,Calm,-,N/A,,Clear,0,2013-03-10 05:35:00
12:55 AM,36.1,34.0,92,30.29,10.0,Calm,Calm,-,N/A,,Clear,0,2013-03-10 05:55:00
1:15 AM,36.9,34.7,92,30.29,10.0,Calm,Calm,-,N/A,,Clear,0,2013-03-10 06:15:00
1:35 AM,37.8,35.2,91,30.29,10.0,Calm,Calm,-,N/A,,Clear,0,2013-03-10 06:35:00
1:55 AM,36.9,34.5,91,30.28,10.0,Calm,Calm,-,N/A,,Clear,0,2013-03-10 06:55:00
3:15 AM,36.7,33.8,89,30.27,10.0,Calm,Calm,-,N/A,,Clear,0,2013-03-10 07:15:00
3:35 AM,35.6,34.3,95,30.26,10.0,Calm,Calm,-,N/A,,Clear,0,2013-03-10 07:35:00
3:55 AM,34.2,32.9,95,30.25,10.0,Calm,Calm,-,N/A,,Clear,0,2013-03-10 07:55:00
4:15 AM,34.3,33.6,97,30.24,10.0,Calm,Calm,-,N/A,,Clear,0,2013-03-10 08:15:00
4:35 AM,34.7,33.8,97,30.25,10.0,Calm,Calm,-,N/A,,Clear,0,2013-03-10 08:35:00
4:55 AM,35.6,33.1,91,30.25,10.0,Calm,Calm,-,N/A,,Clear,0,2013-03-10 08:55:00
5:15 AM,33.8,32.4,94,30.25,10.0,Calm,Calm,-,N/A,,Clear,0,2013-03-10 09:15:00
5:35 AM,34.9,33.1,93,30.26,10.0,Calm,Calm,-,N/A,,Clear,0,2013-03-10 09:35:00
5:55 AM,34.7,33.3,94,30.27,10.0,Calm,Calm,-,N/A,,Clear,0,2013-03-10 09:55:00
6:15 AM,34.7,32.5,92,30.27,10.0,Calm,Calm,-,N/A,,Clear,0,2013-03-10 10:15:00
6:35 AM,32.9,32.2,97,30.27,10.0,Calm,Calm,-,N/A,,Clear,0,2013-03-10 10:35:00
6:55 AM,32.4,32.0,99,30.27,10.0,Calm,Calm,-,N/A,,Clear,0,2013-03-10 10:55:00
7:15 AM,33.3,32.5,97,30.28,10.0,Calm,Calm,-,N/A,,Clear,0,2013-03-10 11:15:00
8:35 AM,37.9,36.1,93,30.29,10.0,Calm,Calm,-,N/A,,Clear,0,2013-03-10 12:35:00
8:55 AM,42.4,38.7,86,30.29,10.0,Calm,Calm,-,N/A,,Clear,0,2013-03-10 12:55:00
9:15 AM,46.0,37.4,72,30.30,10.0,East,3.5,-,N/A,,Clear,80,2013-03-10 13:15:00
9:35 AM,48.9,35.4,60,30.30,10.0,ENE,4.6,-,N/A,,Clear,70,2013-03-10 13:35:00
9:55 AM,51.3,32.4,48,30.30,10.0,East,6.9,-,N/A,,Clear,90,2013-03-10 13:55:00
10:15 AM,53.2,32.0,44,30.31,10.0,ENE,4.6,-,N/A,,Clear,70,2013-03-10 14:15:00
10:35 AM,54.1,29.1,38,30.32,10.0,East,3.5,-,N/A,,Clear,100,2013-03-10 14:35:00
10:55 AM,55.4,28.8,36,30.32,10.0,East,4.6,-,N/A,,Clear,90,2013-03-10 14:55:00
11:15 AM,55.6,27.9,35,30.31,10.0,SE,3.5,-,N/A,,Clear,130,2013-03-10 15:15:00
11:35 AM,55.6,27.3,34,30.30,10.0,SE,4.6,-,N/A,,Clear,130,2013-03-10 15:35:00
11:55 AM,57.7,29.5,34,30.30,10.0,East,5.8,-,N/A,,Clear,80,2013-03-10 15:55:00
12:15 PM,58.3,27.9,31,30.30,10.0,NNE,4.6,-,N/A,,Clear,30,2013-03-10 16:15:00
12:35 PM,59.7,26.8,28,30.30,10.0,ENE,5.8,-,N/A,,Clear,60,2013-03-10 16:35:00
12:55 PM,60.4,24.6,25,30.29,10.0,ENE,3.5,-,N/A,,Clear,60,2013-03-10 16:55:00
1:15 PM,60.6,23.4,24,30.29,10.0,Calm,Calm,-,N/A,,Clear,0,2013-03-10 17:15:00
1:35 PM,63.3,25.9,24,30.28,10.0,ENE,4.6,-,N/A,,Clear,70,2013-03-10 17:35:00
1:55 PM,63.3,24.4,23,30.26,10.0,ENE,3.5,-,N/A,,Clear,70,2013-03-10 17:55:00
2:15 PM,64.6,22.6,20,30.26,10.0,ENE,8.1,-,N/A,,Clear,70,2013-03-10 18:15:00
2:35 PM,64.6,22.3,20,30.24,10.0,ENE,4.6,-,N/A,,Clear,60,2013-03-10 18:35:00
2:55 PM,65.3,23.4,20,30.24,10.0,East,4.6,-,N/A,,Clear,90,2013-03-10 18:55:00
3:15 PM,65.8,23.4,20,30.23,10.0,East,5.8,-,N/A,,Clear,90,2013-03-10 19:15:00
3:35 PM,66.6,23.7,20,30.23,10.0,NE,4.6,-,N/A,,Clear,40,2013-03-10 19:35:00
3:55 PM,66.2,23.0,19,30.23,10.0,East,5.8,-,N/A,,Clear,90,2013-03-10 19:55:00
4:15 PM,66.7,22.1,18,30.22,10.0,East,9.2,-,N/A,,Clear,90,2013-03-10 20:15:00
4:35 PM,67.1,20.5,17,30.22,10.0,East,6.9,-,N/A,,Clear,90,2013-03-10 20:35:00
4:55 PM,67.5,20.8,17,30.21,10.0,East,6.9,-,N/A,,Clear,90,2013-03-10 20:55:00
5:15 PM,66.7,19.6,17,30.21,10.0,ESE,5.8,-,N/A,,Clear,120,2013-03-10 21:15:00
5:35 PM,66.7,17.1,15,30.21,10.0,East,9.2,-,N/A,,Clear,100,2013-03-10 21:35:00
5:55 PM,66.0,14.9,14,30.22,10.0,ESE,6.9,-,N/A,,Clear,120,2013-03-10 21:55:00
6:15 PM,64.9,14.4,14,30.22,10.0,ESE,6.9,-,N/A,,Clear,120,2013-03-10 22:15:00
6:35 PM,63.9,14.4,15,30.23,10.0,ESE,8.1,-,N/A,,Clear,120,2013-03-10 22:35:00
6:55 PM,61.9,16.5,17,30.23,10.0,ESE,5.8,-,N/A,,Clear,110,2013-03-10 22:55:00
7:15 PM,59.9,17.4,19,30.23,10.0,ESE,5.8,-,N/A,,Clear,110,2013-03-10 23:15:00
7:35 PM,58.3,18.5,21,30.24,10.0,ESE,3.5,-,N/A,,Clear,120,2013-03-10 23:35:00
7:55 PM,56.8,16.7,21,30.24,10.0,ESE,3.5,-,N/A,,Clear,120,2013-03-10 23:55:00
8:15 PM,55.9,16.0,21,30.24,10.0,Calm,Calm,-,N/A,,Clear,0,2013-03-11 00:15:00
8:35 PM,54.3,18.0,24,30.24,10.0,East,3.5,-,N/A,,Clear,100,2013-03-11 00:35:00
8:55 PM,50.2,20.5,31,30.24,10.0,Calm,Calm,-,N/A,,Clear,0,2013-03-11 00:55:00
9:15 PM,48.6,24.4,39,30.25,10.0,Calm,Calm,-,N/A,,Clear,0,2013-03-11 01:15:00
9:35 PM,50.2,21.6,33,30.25,10.0,Calm,Calm,-,N/A,,Clear,0,2013-03-11 01:35:00
9:55 PM,47.5,24.3,40,30.26,10.0,Calm,Calm,-,N/A,,Clear,0,2013-03-11 01:55:00
10:15 PM,46.4,23.7,41,30.26,10.0,Calm,Calm,-,N/A,,Clear,0,2013-03-11 02:15:00
10:35 PM,45.7,24.4,43,30.26,10.0,Calm,Calm,-,N/A,,Clear,0,2013-03-11 02:35:00
10:55 PM,44.6,28.6,53,30.26,10.0,Calm,Calm,-,N/A,,Clear,0,2013-03-11 02:55:00
11:15 PM,44.2,26.2,49,30.26,10.0,Calm,Calm,-,N/A,,Clear,0,2013-03-11 03:15:00
11:35 PM,43.0,28.0,56,30.26,10.0,Calm,Calm,-,N/A,,Clear,0,2013-03-11 03:35:00
11:55 PM,45.9,30.0,54,30.25,10.0,Calm,Calm,-,N/A,,Clear,0,2013-03-11 03:55:00
12:15 AM,43.3,29.7,59,30.24,10.0,Calm,Calm,-,N/A,,Clear,0,2013-03-11 04:15:00
12:35 AM,42.8,32.0,66,30.24,10.0,Calm,Calm,-,N/A,,Clear,0,2013-03-11 04:35:00